Year,Month,Day,Hour,Minute,Value (Times are PST for temperature in C)
2015,02,21,00,00,5.00
2015,02,21,00,01,4.90
2015,02,21,00,02,4.90
2015,02,21,00,03,4.90
2015,02,21,00,04,4.90
2015,02,21,00,05,4.90
2015,02,21,00,06,4.90
2015,02,21,00,07,4.90
2015,02,21,00,08,4.90
2015,02,21,00,09,4.90
2015,02,21,00,10,4.90
2015,02,21,00,11,4.90
2015,02,21,00,12,4.90
2015,02,21,00,13,4.90
2015,02,21,00,14,4.90
2015,02,21,00,15,4.90
2015,02,21,00,16,4.90
2015,02,21,00,17,4.90
2015,02,21,00,18,4.90
2015,02,21,00,19,4.80
2015,02,21,00,20,4.80
2015,02,21,00,21,4.80
2015,02,21,00,22,4.80
2015,02,21,00,23,4.80
2015,02,21,00,24,4.80
2015,02,21,00,25,4.90
2015,02,21,00,26,4.90
2015,02,21,00,27,4.90
2015,02,21,00,28,4.90
2015,02,21,00,29,4.90
2015,02,21,00,30,4.90
2015,02,21,00,31,4.90
2015,02,21,00,32,4.90
2015,02,21,00,33,4.90
2015,02,21,00,34,4.90
2015,02,21,00,35,4.90
2015,02,21,00,36,4.90
2015,02,21,00,37,4.80
2015,02,21,00,38,4.80
2015,02,21,00,39,4.80
2015,02,21,00,40,4.90
2015,02,21,00,41,4.90
2015,02,21,00,42,4.90
2015,02,21,00,43,4.90
2015,02,21,00,44,4.90
2015,02,21,00,45,4.90
2015,02,21,00,46,4.90
2015,02,21,00,47,4.90
2015,02,21,00,48,4.90
2015,02,21,00,49,4.90
2015,02,21,00,50,4.90
2015,02,21,00,51,4.90
2015,02,21,00,52,4.90
2015,02,21,00,53,4.90
2015,02,21,00,54,4.90
2015,02,21,00,55,4.90
2015,02,21,00,56,4.90
2015,02,21,00,57,4.80
2015,02,21,00,58,4.80
2015,02,21,00,59,4.80
2015,02,21,01,00,4.80
2015,02,21,01,01,4.80
2015,02,21,01,02,4.80
2015,02,21,01,03,4.80
2015,02,21,01,04,4.80
2015,02,21,01,05,4.80
2015,02,21,01,06,4.80
2015,02,21,01,07,4.80
2015,02,21,01,08,4.80
2015,02,21,01,09,4.80
2015,02,21,01,10,4.80
2015,02,21,01,11,4.80
2015,02,21,01,12,4.80
2015,02,21,01,13,4.80
2015,02,21,01,14,4.80
2015,02,21,01,15,4.80
2015,02,21,01,16,4.80
2015,02,21,01,17,4.80
2015,02,21,01,18,4.70
2015,02,21,01,19,4.70
2015,02,21,01,20,4.70
2015,02,21,01,21,4.70
2015,02,21,01,22,4.70
2015,02,21,01,23,4.70
2015,02,21,01,24,4.70
2015,02,21,01,25,4.70
2015,02,21,01,26,4.70
2015,02,21,01,27,4.60
2015,02,21,01,28,4.60
2015,02,21,01,29,4.60
2015,02,21,01,30,4.60
2015,02,21,01,31,4.60
2015,02,21,01,32,4.70
2015,02,21,01,33,4.70
2015,02,21,01,34,4.70
2015,02,21,01,35,4.70
2015,02,21,01,36,4.70
2015,02,21,01,37,4.70
2015,02,21,01,38,4.70
2015,02,21,01,39,4.70
2015,02,21,01,40,4.70
2015,02,21,01,41,4.70
2015,02,21,01,42,4.70
2015,02,21,01,43,4.70
2015,02,21,01,44,4.70
2015,02,21,01,45,4.70
2015,02,21,01,46,4.80
2015,02,21,01,47,4.80
2015,02,21,01,48,4.80
2015,02,21,01,49,4.80
2015,02,21,01,50,4.80
2015,02,21,01,51,4.70
2015,02,21,01,52,4.70
2015,02,21,01,53,4.70
2015,02,21,01,54,4.70
2015,02,21,01,55,4.70
2015,02,21,01,56,4.70
2015,02,21,01,57,4.70
2015,02,21,01,58,4.70
2015,02,21,01,59,4.70
2015,02,21,02,00,4.70
2015,02,21,02,01,4.70
2015,02,21,02,02,4.70
2015,02,21,02,03,4.70
2015,02,21,02,04,4.70
2015,02,21,02,05,4.70
2015,02,21,02,06,4.70
2015,02,21,02,07,4.80
2015,02,21,02,08,4.80
2015,02,21,02,09,4.80
2015,02,21,02,10,4.80
2015,02,21,02,11,4.70
2015,02,21,02,12,4.70
2015,02,21,02,13,4.70
2015,02,21,02,14,4.70
2015,02,21,02,15,4.70
2015,02,21,02,16,4.70
2015,02,21,02,17,4.70
2015,02,21,02,18,4.70
2015,02,21,02,19,4.70
2015,02,21,02,20,4.70
2015,02,21,02,21,4.70
2015,02,21,02,22,4.70
2015,02,21,02,23,4.70
2015,02,21,02,24,4.60
2015,02,21,02,25,4.60
2015,02,21,02,26,4.60
2015,02,21,02,27,4.60
2015,02,21,02,28,4.60
2015,02,21,02,29,4.60
2015,02,21,02,30,4.60
2015,02,21,02,31,4.60
2015,02,21,02,32,4.60
2015,02,21,02,33,4.60
2015,02,21,02,34,4.60
2015,02,21,02,35,4.60
2015,02,21,02,36,4.60
2015,02,21,02,37,4.50
2015,02,21,02,38,4.50
2015,02,21,02,39,4.50
2015,02,21,02,40,4.60
2015,02,21,02,41,4.60
2015,02,21,02,42,4.50
2015,02,21,02,43,4.50
2015,02,21,02,44,4.50
2015,02,21,02,45,4.50
2015,02,21,02,46,4.50
2015,02,21,02,47,4.50
2015,02,21,02,48,4.50
2015,02,21,02,49,4.50
2015,02,21,02,50,4.50
2015,02,21,02,51,4.50
2015,02,21,02,52,4.50
2015,02,21,02,53,4.40
2015,02,21,02,54,4.40
2015,02,21,02,55,4.40
2015,02,21,02,56,4.40
2015,02,21,02,57,4.40
2015,02,21,02,58,4.40
2015,02,21,02,59,4.40
2015,02,21,03,00,4.40
2015,02,21,03,01,4.50
2015,02,21,03,02,4.50
2015,02,21,03,03,4.50
2015,02,21,03,04,4.60
2015,02,21,03,05,4.50
2015,02,21,03,06,4.50
2015,02,21,03,07,4.50
2015,02,21,03,08,4.50
2015,02,21,03,09,4.50
2015,02,21,03,10,4.60
2015,02,21,03,11,4.60
2015,02,21,03,12,4.50
2015,02,21,03,13,4.50
2015,02,21,03,14,4.50
2015,02,21,03,15,4.50
2015,02,21,03,16,4.50
2015,02,21,03,17,4.50
2015,02,21,03,18,4.50
2015,02,21,03,19,4.50
2015,02,21,03,20,4.50
2015,02,21,03,21,4.60
2015,02,21,03,22,4.60
2015,02,21,03,23,4.60
2015,02,21,03,24,4.60
2015,02,21,03,25,4.60
2015,02,21,03,26,4.60
2015,02,21,03,27,4.60
2015,02,21,03,28,4.60
2015,02,21,03,29,4.60
2015,02,21,03,30,4.60
2015,02,21,03,31,4.70
2015,02,21,03,32,4.70
2015,02,21,03,33,4.60
2015,02,21,03,34,4.60
2015,02,21,03,35,4.60
2015,02,21,03,36,4.60
2015,02,21,03,37,4.60
2015,02,21,03,38,4.50
2015,02,21,03,39,4.50
2015,02,21,03,40,4.50
2015,02,21,03,41,4.50
2015,02,21,03,42,4.50
2015,02,21,03,43,4.50
2015,02,21,03,44,4.50
2015,02,21,03,45,4.50
2015,02,21,03,46,4.50
2015,02,21,03,47,4.50
2015,02,21,03,48,4.50
2015,02,21,03,49,4.50
2015,02,21,03,50,4.50
2015,02,21,03,51,4.50
2015,02,21,03,52,4.40
2015,02,21,03,53,4.40
2015,02,21,03,54,4.40
2015,02,21,03,55,4.40
2015,02,21,03,56,4.40
2015,02,21,03,57,4.40
2015,02,21,03,58,4.40
2015,02,21,03,59,4.40
2015,02,21,04,00,4.40
2015,02,21,04,01,4.40
2015,02,21,04,02,4.40
2015,02,21,04,03,4.40
2015,02,21,04,04,4.30
2015,02,21,04,05,4.30
2015,02,21,04,06,4.30
2015,02,21,04,07,4.30
2015,02,21,04,08,4.30
2015,02,21,04,09,4.30
2015,02,21,04,10,4.30
2015,02,21,04,11,4.30
2015,02,21,04,12,4.30
2015,02,21,04,13,4.30
2015,02,21,04,14,4.30
2015,02,21,04,15,4.30
2015,02,21,04,16,4.30
2015,02,21,04,17,4.30
2015,02,21,04,18,4.30
2015,02,21,04,19,4.30
2015,02,21,04,20,4.30
2015,02,21,04,21,4.30
2015,02,21,04,22,4.30
2015,02,21,04,23,4.30
2015,02,21,04,24,4.30
2015,02,21,04,25,4.30
2015,02,21,04,26,4.30
2015,02,21,04,27,4.20
2015,02,21,04,28,4.20
2015,02,21,04,29,4.20
2015,02,21,04,30,4.20
2015,02,21,04,31,4.20
2015,02,21,04,32,4.20
2015,02,21,04,33,4.20
2015,02,21,04,34,4.20
2015,02,21,04,35,4.20
2015,02,21,04,36,4.20
2015,02,21,04,37,4.20
2015,02,21,04,38,4.20
2015,02,21,04,39,4.20
2015,02,21,04,40,4.20
2015,02,21,04,41,4.20
2015,02,21,04,42,4.20
2015,02,21,04,43,4.20
2015,02,21,04,44,4.20
2015,02,21,04,45,4.20
2015,02,21,04,46,4.20
2015,02,21,04,47,4.20
2015,02,21,04,48,4.20
2015,02,21,04,49,4.20
2015,02,21,04,50,4.20
2015,02,21,04,51,4.20
2015,02,21,04,52,4.20
2015,02,21,04,53,4.20
2015,02,21,04,54,4.20
2015,02,21,04,55,4.20
2015,02,21,04,56,4.20
2015,02,21,04,57,4.20
2015,02,21,04,58,4.20
2015,02,21,04,59,4.20
2015,02,21,05,00,4.20
2015,02,21,05,01,4.20
2015,02,21,05,02,4.20
2015,02,21,05,03,4.20
2015,02,21,05,04,4.20
2015,02,21,05,05,4.20
2015,02,21,05,06,4.20
2015,02,21,05,07,4.20
2015,02,21,05,08,4.20
2015,02,21,05,09,4.20
2015,02,21,05,10,4.20
2015,02,21,05,11,4.10
2015,02,21,05,12,4.10
2015,02,21,05,13,4.10
2015,02,21,05,14,4.10
2015,02,21,05,15,4.10
2015,02,21,05,16,4.10
2015,02,21,05,17,4.00
2015,02,21,05,18,4.00
2015,02,21,05,19,3.90
2015,02,21,05,20,3.90
2015,02,21,05,21,3.90
2015,02,21,05,22,3.90
2015,02,21,05,23,3.80
2015,02,21,05,24,3.80
2015,02,21,05,25,3.80
2015,02,21,05,26,3.80
2015,02,21,05,27,3.70
2015,02,21,05,28,3.70
2015,02,21,05,29,3.70
2015,02,21,05,30,3.70
2015,02,21,05,31,3.80
2015,02,21,05,32,3.80
2015,02,21,05,33,3.80
2015,02,21,05,34,3.80
2015,02,21,05,35,3.80
2015,02,21,05,36,3.80
2015,02,21,05,37,3.80
2015,02,21,05,38,3.80
2015,02,21,05,39,3.80
2015,02,21,05,40,3.80
2015,02,21,05,41,3.80
2015,02,21,05,42,3.80
2015,02,21,05,43,3.80
2015,02,21,05,44,3.80
2015,02,21,05,45,3.80
2015,02,21,05,46,3.80
2015,02,21,05,47,3.80
2015,02,21,05,48,3.80
2015,02,21,05,49,3.80
2015,02,21,05,50,3.80
2015,02,21,05,51,3.80
2015,02,21,05,52,3.80
2015,02,21,05,53,3.80
2015,02,21,05,54,3.80
2015,02,21,05,55,3.90
2015,02,21,05,56,3.90
2015,02,21,05,57,3.90
2015,02,21,05,58,3.90
2015,02,21,05,59,3.90
2015,02,21,06,00,3.80
2015,02,21,06,01,3.80
2015,02,21,06,02,3.80
2015,02,21,06,03,3.80
2015,02,21,06,04,3.70
2015,02,21,06,05,3.70
2015,02,21,06,06,3.70
2015,02,21,06,07,3.70
2015,02,21,06,08,3.70
2015,02,21,06,09,3.70
2015,02,21,06,10,3.70
2015,02,21,06,11,3.70
2015,02,21,06,12,3.70
2015,02,21,06,13,3.70
2015,02,21,06,14,3.70
2015,02,21,06,15,3.60
2015,02,21,06,16,3.60
2015,02,21,06,17,3.60
2015,02,21,06,18,3.60
2015,02,21,06,19,3.60
2015,02,21,06,20,3.60
2015,02,21,06,21,3.60
2015,02,21,06,22,3.50
2015,02,21,06,23,3.50
2015,02,21,06,24,3.40
2015,02,21,06,25,3.40
2015,02,21,06,26,3.30
2015,02,21,06,27,3.30
2015,02,21,06,28,3.30
2015,02,21,06,29,3.30
2015,02,21,06,30,3.20
2015,02,21,06,31,3.20
2015,02,21,06,32,3.20
2015,02,21,06,33,3.20
2015,02,21,06,34,3.10
2015,02,21,06,35,3.10
2015,02,21,06,36,3.10
2015,02,21,06,37,3.10
2015,02,21,06,38,3.10
2015,02,21,06,39,3.10
2015,02,21,06,40,3.00
2015,02,21,06,41,3.00
2015,02,21,06,42,3.00
2015,02,21,06,43,3.00
2015,02,21,06,44,2.90
2015,02,21,06,45,2.90
2015,02,21,06,46,2.90
2015,02,21,06,47,2.90
2015,02,21,06,48,2.90
2015,02,21,06,49,2.90
2015,02,21,06,50,2.90
2015,02,21,06,51,2.90
2015,02,21,06,52,2.90
2015,02,21,06,53,2.90
2015,02,21,06,54,2.90
2015,02,21,06,55,2.90
2015,02,21,06,56,2.90
2015,02,21,06,57,2.90
2015,02,21,06,58,2.80
2015,02,21,06,59,2.80
2015,02,21,07,00,2.80
2015,02,21,07,01,2.80
2015,02,21,07,02,2.80
2015,02,21,07,03,2.80
2015,02,21,07,04,2.80
2015,02,21,07,05,2.80
2015,02,21,07,06,2.80
2015,02,21,07,07,2.70
2015,02,21,07,08,2.70
2015,02,21,07,09,2.70
2015,02,21,07,10,2.70
2015,02,21,07,11,2.60
2015,02,21,07,12,2.60
2015,02,21,07,13,2.60
2015,02,21,07,14,2.60
2015,02,21,07,15,2.60
2015,02,21,07,16,2.60
2015,02,21,07,17,2.60
2015,02,21,07,18,2.60
2015,02,21,07,19,2.60
2015,02,21,07,20,2.60
2015,02,21,07,21,2.60
2015,02,21,07,22,2.60
2015,02,21,07,23,2.60
2015,02,21,07,24,2.60
2015,02,21,07,25,2.60
2015,02,21,07,26,2.50
2015,02,21,07,27,2.50
2015,02,21,07,28,2.50
2015,02,21,07,29,2.50
2015,02,21,07,30,2.50
2015,02,21,07,31,2.50
2015,02,21,07,32,2.50
2015,02,21,07,33,2.50
2015,02,21,07,34,2.50
2015,02,21,07,35,2.50
2015,02,21,07,36,2.60
2015,02,21,07,37,2.60
2015,02,21,07,38,2.60
2015,02,21,07,39,2.70
2015,02,21,07,40,2.70
2015,02,21,07,41,2.70
2015,02,21,07,42,2.70
2015,02,21,07,43,2.70
2015,02,21,07,44,2.70
2015,02,21,07,45,2.80
2015,02,21,07,46,2.80
2015,02,21,07,47,2.80
2015,02,21,07,48,2.80
2015,02,21,07,49,2.90
2015,02,21,07,50,2.90
2015,02,21,07,51,2.90
2015,02,21,07,52,2.90
2015,02,21,07,53,2.90
2015,02,21,07,54,3.00
2015,02,21,07,55,2.90
2015,02,21,07,56,2.90
2015,02,21,07,57,3.00
2015,02,21,07,58,3.00
2015,02,21,07,59,3.00
2015,02,21,08,00,3.10
2015,02,21,08,01,3.10
2015,02,21,08,02,3.10
2015,02,21,08,03,3.20
2015,02,21,08,04,3.20
2015,02,21,08,05,3.20
2015,02,21,08,06,3.20
2015,02,21,08,07,3.20
2015,02,21,08,08,3.30
2015,02,21,08,09,3.30
2015,02,21,08,10,3.30
2015,02,21,08,11,3.30
2015,02,21,08,12,3.30
2015,02,21,08,13,3.40
2015,02,21,08,14,3.40
2015,02,21,08,15,3.40
2015,02,21,08,16,3.50
2015,02,21,08,17,3.50
2015,02,21,08,18,3.60
2015,02,21,08,19,3.60
2015,02,21,08,20,3.60
2015,02,21,08,21,3.70
2015,02,21,08,22,3.70
2015,02,21,08,23,3.70
2015,02,21,08,24,3.70
2015,02,21,08,25,3.80
2015,02,21,08,26,3.80
2015,02,21,08,27,3.80
2015,02,21,08,28,3.80
2015,02,21,08,29,3.90
2015,02,21,08,30,3.90
2015,02,21,08,31,3.90
2015,02,21,08,32,3.90
2015,02,21,08,33,4.00
2015,02,21,08,34,4.00
2015,02,21,08,35,4.10
2015,02,21,08,36,4.10
2015,02,21,08,37,4.10
2015,02,21,08,38,4.10
2015,02,21,08,39,4.20
2015,02,21,08,40,4.20
2015,02,21,08,41,4.20
2015,02,21,08,42,4.30
2015,02,21,08,43,4.30
2015,02,21,08,44,4.30
2015,02,21,08,45,4.40
2015,02,21,08,46,4.40
2015,02,21,08,47,4.40
2015,02,21,08,48,4.50
2015,02,21,08,49,4.50
2015,02,21,08,50,4.60
2015,02,21,08,51,4.60
2015,02,21,08,52,4.60
2015,02,21,08,53,4.70
2015,02,21,08,54,4.70
2015,02,21,08,55,4.70
2015,02,21,08,56,4.80
2015,02,21,08,57,4.80
2015,02,21,08,58,4.80
2015,02,21,08,59,4.90
2015,02,21,09,00,4.90
2015,02,21,09,01,5.00
2015,02,21,09,02,5.00
2015,02,21,09,03,5.10
2015,02,21,09,04,5.10
2015,02,21,09,05,5.20
2015,02,21,09,06,5.20
2015,02,21,09,07,5.30
2015,02,21,09,08,5.30
2015,02,21,09,09,5.30
2015,02,21,09,10,5.40
2015,02,21,09,11,5.40
2015,02,21,09,12,5.40
2015,02,21,09,13,5.50
2015,02,21,09,14,5.60
2015,02,21,09,15,5.60
2015,02,21,09,16,5.60
2015,02,21,09,17,5.70
2015,02,21,09,18,5.80
2015,02,21,09,19,5.80
2015,02,21,09,20,5.90
2015,02,21,09,21,6.00
2015,02,21,09,22,6.00
2015,02,21,09,23,6.10
2015,02,21,09,24,6.20
2015,02,21,09,25,6.20
2015,02,21,09,26,6.30
2015,02,21,09,27,6.30
2015,02,21,09,28,6.40
2015,02,21,09,29,6.40
2015,02,21,09,30,6.50
2015,02,21,09,31,6.60
2015,02,21,09,32,6.60
2015,02,21,09,33,6.60
2015,02,21,09,34,6.70
2015,02,21,09,35,6.70
2015,02,21,09,36,6.80
2015,02,21,09,37,6.80
2015,02,21,09,38,6.80
2015,02,21,09,39,6.90
2015,02,21,09,40,6.90
2015,02,21,09,41,7.00
2015,02,21,09,42,7.10
2015,02,21,09,43,7.10
2015,02,21,09,44,7.10
2015,02,21,09,45,7.20
2015,02,21,09,46,7.20
2015,02,21,09,47,7.30
2015,02,21,09,48,7.30
2015,02,21,09,49,7.40
2015,02,21,09,50,7.40
2015,02,21,09,51,7.50
2015,02,21,09,52,7.60
2015,02,21,09,53,7.60
2015,02,21,09,54,7.70
2015,02,21,09,55,7.70
2015,02,21,09,56,7.70
2015,02,21,09,57,7.80
2015,02,21,09,58,7.80
2015,02,21,09,59,7.80
2015,02,21,10,00,7.90
2015,02,21,10,01,8.00
2015,02,21,10,02,8.00
2015,02,21,10,03,8.00
2015,02,21,10,04,8.10
2015,02,21,10,05,8.10
2015,02,21,10,06,8.10
2015,02,21,10,07,8.20
2015,02,21,10,08,8.20
2015,02,21,10,09,8.20
2015,02,21,10,10,8.20
2015,02,21,10,11,8.30
2015,02,21,10,12,8.30
2015,02,21,10,13,8.30
2015,02,21,10,14,8.40
2015,02,21,10,15,8.40
2015,02,21,10,16,8.40
2015,02,21,10,17,8.50
2015,02,21,10,18,8.50
2015,02,21,10,19,8.60
2015,02,21,10,20,8.60
2015,02,21,10,21,8.60
2015,02,21,10,22,8.70
2015,02,21,10,23,8.70
2015,02,21,10,24,8.80
2015,02,21,10,25,8.80
2015,02,21,10,26,8.80
2015,02,21,10,27,8.90
2015,02,21,10,28,8.90
2015,02,21,10,29,8.90
2015,02,21,10,30,9.00
2015,02,21,10,31,9.10
2015,02,21,10,32,9.10
2015,02,21,10,33,9.10
2015,02,21,10,34,9.20
2015,02,21,10,35,9.20
2015,02,21,10,36,9.30
2015,02,21,10,37,9.30
2015,02,21,10,38,9.40
2015,02,21,10,39,9.40
2015,02,21,10,40,9.40
2015,02,21,10,41,9.50
2015,02,21,10,42,9.50
2015,02,21,10,43,9.60
2015,02,21,10,44,9.60
2015,02,21,10,45,9.70
2015,02,21,10,46,9.70
2015,02,21,10,47,9.70
2015,02,21,10,48,9.70
2015,02,21,10,49,9.80
2015,02,21,10,50,9.80
2015,02,21,10,51,9.80
2015,02,21,10,52,9.90
2015,02,21,10,53,9.90
2015,02,21,10,54,10.00
2015,02,21,10,55,10.00
2015,02,21,10,56,10.10
2015,02,21,10,57,10.20
2015,02,21,10,58,10.30
2015,02,21,10,59,10.30
2015,02,21,11,00,10.30
2015,02,21,11,01,10.40
2015,02,21,11,02,10.40
2015,02,21,11,03,10.40
2015,02,21,11,04,10.40
2015,02,21,11,05,10.50
2015,02,21,11,06,10.50
2015,02,21,11,07,10.60
2015,02,21,11,08,10.60
2015,02,21,11,09,10.70
2015,02,21,11,10,10.80
2015,02,21,11,11,10.90
2015,02,21,11,12,10.90
2015,02,21,11,13,11.00
2015,02,21,11,14,11.10
2015,02,21,11,15,11.10
2015,02,21,11,16,11.20
2015,02,21,11,17,11.20
2015,02,21,11,18,11.20
2015,02,21,11,19,11.20
2015,02,21,11,20,11.20
2015,02,21,11,21,11.20
2015,02,21,11,22,11.20
2015,02,21,11,23,11.20
2015,02,21,11,24,11.30
2015,02,21,11,25,11.30
2015,02,21,11,26,11.30
2015,02,21,11,27,11.30
2015,02,21,11,28,11.40
2015,02,21,11,29,11.40
2015,02,21,11,30,11.40
2015,02,21,11,31,11.50
2015,02,21,11,32,11.60
2015,02,21,11,33,11.60
2015,02,21,11,34,11.70
2015,02,21,11,35,11.80
2015,02,21,11,36,11.80
2015,02,21,11,37,11.80
2015,02,21,11,38,11.80
2015,02,21,11,39,11.80
2015,02,21,11,40,11.90
2015,02,21,11,41,11.90
2015,02,21,11,42,12.00
2015,02,21,11,43,12.00
2015,02,21,11,44,12.10
2015,02,21,11,45,12.20
2015,02,21,11,46,12.30
2015,02,21,11,47,12.40
2015,02,21,11,48,12.40
2015,02,21,11,49,12.40
2015,02,21,11,50,12.40
2015,02,21,11,51,12.40
2015,02,21,11,52,12.40
2015,02,21,11,53,12.30
2015,02,21,11,54,12.30
2015,02,21,11,55,12.20
2015,02,21,11,56,12.20
2015,02,21,11,57,12.20
2015,02,21,11,58,12.20
2015,02,21,11,59,12.30
2015,02,21,12,00,12.30
2015,02,21,12,01,12.30
2015,02,21,12,02,12.30
2015,02,21,12,03,12.30
2015,02,21,12,04,12.30
2015,02,21,12,05,12.30
2015,02,21,12,06,12.30
2015,02,21,12,07,12.30
2015,02,21,12,08,12.30
2015,02,21,12,09,12.30
2015,02,21,12,10,12.20
2015,02,21,12,11,12.00
2015,02,21,12,12,11.90
2015,02,21,12,13,12.00
2015,02,21,12,14,12.00
2015,02,21,12,15,12.00
2015,02,21,12,16,12.00
2015,02,21,12,17,12.00
2015,02,21,12,18,12.00
2015,02,21,12,19,12.00
2015,02,21,12,20,12.10
2015,02,21,12,21,12.20
2015,02,21,12,22,12.20
2015,02,21,12,23,12.30
2015,02,21,12,24,12.30
2015,02,21,12,25,12.30
2015,02,21,12,26,12.40
2015,02,21,12,27,12.40
2015,02,21,12,28,12.40
2015,02,21,12,29,12.50
2015,02,21,12,30,12.50
2015,02,21,12,31,12.40
2015,02,21,12,32,12.40
2015,02,21,12,33,12.40
2015,02,21,12,34,12.40
2015,02,21,12,35,12.50
2015,02,21,12,36,12.60
2015,02,21,12,37,12.60
2015,02,21,12,38,12.60
2015,02,21,12,39,12.60
2015,02,21,12,40,12.70
2015,02,21,12,41,12.70
2015,02,21,12,42,12.70
2015,02,21,12,43,12.70
2015,02,21,12,44,12.70
2015,02,21,12,45,12.70
2015,02,21,12,46,12.80
2015,02,21,12,47,12.80
2015,02,21,12,48,12.90
2015,02,21,12,49,12.90
2015,02,21,12,50,12.90
2015,02,21,12,51,12.90
2015,02,21,12,52,12.90
2015,02,21,12,53,12.90
2015,02,21,12,54,12.90
2015,02,21,12,55,12.90
2015,02,21,12,56,12.90
2015,02,21,12,57,12.90
2015,02,21,12,58,12.90
2015,02,21,12,59,12.90
2015,02,21,13,00,12.90
2015,02,21,13,01,12.90
2015,02,21,13,02,12.90
2015,02,21,13,03,12.90
2015,02,21,13,04,12.90
2015,02,21,13,05,12.80
2015,02,21,13,06,12.80
2015,02,21,13,07,12.80
2015,02,21,13,08,12.80
2015,02,21,13,09,12.80
2015,02,21,13,10,12.80
2015,02,21,13,11,12.80
2015,02,21,13,12,12.80
2015,02,21,13,13,12.80
2015,02,21,13,14,12.80
2015,02,21,13,15,12.70
2015,02,21,13,16,12.70
2015,02,21,13,17,12.70
2015,02,21,13,18,12.70
2015,02,21,13,19,12.70
2015,02,21,13,20,12.70
2015,02,21,13,21,12.70
2015,02,21,13,22,12.80
2015,02,21,13,23,12.90
2015,02,21,13,24,13.00
2015,02,21,13,25,13.10
2015,02,21,13,26,13.20
2015,02,21,13,27,13.20
2015,02,21,13,28,13.30
2015,02,21,13,29,13.30
2015,02,21,13,30,13.30
2015,02,21,13,31,13.30
2015,02,21,13,32,13.30
2015,02,21,13,33,13.30
2015,02,21,13,34,13.40
2015,02,21,13,35,13.40
2015,02,21,13,36,13.50
2015,02,21,13,37,13.60
2015,02,21,13,38,13.60
2015,02,21,13,39,13.60
2015,02,21,13,40,13.60
2015,02,21,13,41,13.70
2015,02,21,13,42,13.70
2015,02,21,13,43,13.70
2015,02,21,13,44,13.80
2015,02,21,13,45,13.90
2015,02,21,13,46,14.00
2015,02,21,13,47,14.10
2015,02,21,13,48,14.10
2015,02,21,13,49,14.20
2015,02,21,13,50,14.30
2015,02,21,13,51,14.30
2015,02,21,13,52,14.30
2015,02,21,13,53,14.30
2015,02,21,13,54,14.30
2015,02,21,13,55,14.30
2015,02,21,13,56,14.40
2015,02,21,13,57,14.40
2015,02,21,13,58,14.50
2015,02,21,13,59,14.50
2015,02,21,14,00,14.50
2015,02,21,14,01,14.50
2015,02,21,14,02,14.50
2015,02,21,14,03,14.50
2015,02,21,14,04,14.50
2015,02,21,14,05,14.50
2015,02,21,14,06,14.50
2015,02,21,14,07,14.50
2015,02,21,14,08,14.60
2015,02,21,14,09,14.60
2015,02,21,14,10,14.60
2015,02,21,14,11,14.80
2015,02,21,14,12,14.80
2015,02,21,14,13,14.90
2015,02,21,14,14,14.90
2015,02,21,14,15,14.90
2015,02,21,14,16,14.90
2015,02,21,14,17,14.90
2015,02,21,14,18,14.90
2015,02,21,14,19,14.90
2015,02,21,14,20,14.90
2015,02,21,14,21,14.90
2015,02,21,14,22,14.90
2015,02,21,14,23,15.00
2015,02,21,14,24,15.00
2015,02,21,14,25,15.00
2015,02,21,14,26,15.10
2015,02,21,14,27,15.10
2015,02,21,14,28,15.10
2015,02,21,14,29,15.20
2015,02,21,14,30,15.20
2015,02,21,14,31,15.20
2015,02,21,14,32,15.20
2015,02,21,14,33,15.20
2015,02,21,14,34,15.20
2015,02,21,14,35,15.20
2015,02,21,14,36,15.20
2015,02,21,14,37,15.20
2015,02,21,14,38,15.30
2015,02,21,14,39,15.30
2015,02,21,14,40,15.30
2015,02,21,14,41,15.30
2015,02,21,14,42,15.30
2015,02,21,14,43,15.30
2015,02,21,14,44,15.30
2015,02,21,14,45,15.40
2015,02,21,14,46,15.40
2015,02,21,14,47,15.50
2015,02,21,14,48,15.50
2015,02,21,14,49,15.50
2015,02,21,14,50,15.50
2015,02,21,14,51,15.50
2015,02,21,14,52,15.60
2015,02,21,14,53,15.60
2015,02,21,14,54,15.60
2015,02,21,14,55,15.60
2015,02,21,14,56,15.50
2015,02,21,14,57,15.50
2015,02,21,14,58,15.40
2015,02,21,14,59,15.40
2015,02,21,15,00,15.40
2015,02,21,15,01,15.30
2015,02,21,15,02,15.30
2015,02,21,15,03,15.30
2015,02,21,15,04,15.30
2015,02,21,15,05,15.30
2015,02,21,15,06,15.30
2015,02,21,15,07,15.30
2015,02,21,15,08,15.30
2015,02,21,15,09,15.30
2015,02,21,15,10,15.30
2015,02,21,15,11,15.30
2015,02,21,15,12,15.20
2015,02,21,15,13,15.20
2015,02,21,15,14,15.20
2015,02,21,15,15,15.20
2015,02,21,15,16,15.20
2015,02,21,15,17,15.20
2015,02,21,15,18,15.20
2015,02,21,15,19,15.30
2015,02,21,15,20,15.30
2015,02,21,15,21,15.40
2015,02,21,15,22,15.40
2015,02,21,15,23,15.40
2015,02,21,15,24,15.40
2015,02,21,15,25,15.40
2015,02,21,15,26,15.40
2015,02,21,15,27,15.30
2015,02,21,15,28,15.30
2015,02,21,15,29,15.30
2015,02,21,15,30,15.30
2015,02,21,15,31,15.30
2015,02,21,15,32,15.30
2015,02,21,15,33,15.40
2015,02,21,15,34,15.40
2015,02,21,15,35,15.50
2015,02,21,15,36,15.50
2015,02,21,15,37,15.50
2015,02,21,15,38,15.50
2015,02,21,15,39,15.40
2015,02,21,15,40,15.40
2015,02,21,15,41,15.40
2015,02,21,15,42,15.40
2015,02,21,15,43,15.40
2015,02,21,15,44,15.40
2015,02,21,15,45,15.40
2015,02,21,15,46,15.40
2015,02,21,15,47,15.40
2015,02,21,15,48,15.40
2015,02,21,15,49,15.40
2015,02,21,15,50,15.40
2015,02,21,15,51,15.40
2015,02,21,15,52,15.40
2015,02,21,15,53,15.40
2015,02,21,15,54,15.40
2015,02,21,15,55,15.30
2015,02,21,15,56,15.30
2015,02,21,15,57,15.30
2015,02,21,15,58,15.30
2015,02,21,15,59,15.30
2015,02,21,16,00,15.30
2015,02,21,16,01,15.20
2015,02,21,16,02,15.20
2015,02,21,16,03,15.10
2015,02,21,16,04,15.10
2015,02,21,16,05,15.10
2015,02,21,16,06,15.10
2015,02,21,16,07,15.20
2015,02,21,16,08,15.20
2015,02,21,16,09,15.20
2015,02,21,16,10,15.30
2015,02,21,16,11,15.30
2015,02,21,16,12,15.40
2015,02,21,16,13,15.40
2015,02,21,16,14,15.40
2015,02,21,16,15,15.40
2015,02,21,16,16,15.30
2015,02,21,16,17,15.30
2015,02,21,16,18,15.30
2015,02,21,16,19,15.30
2015,02,21,16,20,15.30
2015,02,21,16,21,15.20
2015,02,21,16,22,15.20
2015,02,21,16,23,15.20
2015,02,21,16,24,15.20
2015,02,21,16,25,15.20
2015,02,21,16,26,15.20
2015,02,21,16,27,15.20
2015,02,21,16,28,15.10
2015,02,21,16,29,15.00
2015,02,21,16,30,15.00
2015,02,21,16,31,14.90
2015,02,21,16,32,14.90
2015,02,21,16,33,14.80
2015,02,21,16,34,14.80
2015,02,21,16,35,14.80
2015,02,21,16,36,14.80
2015,02,21,16,37,14.80
2015,02,21,16,38,14.70
2015,02,21,16,39,14.70
2015,02,21,16,40,14.70
2015,02,21,16,41,14.70
2015,02,21,16,42,14.70
2015,02,21,16,43,14.70
2015,02,21,16,44,14.60
2015,02,21,16,45,14.60
2015,02,21,16,46,14.50
2015,02,21,16,47,14.50
2015,02,21,16,48,14.40
2015,02,21,16,49,14.40
2015,02,21,16,50,14.30
2015,02,21,16,51,14.20
2015,02,21,16,52,14.10
2015,02,21,16,53,14.00
2015,02,21,16,54,13.90
2015,02,21,16,55,13.80
2015,02,21,16,56,13.70
2015,02,21,16,57,13.60
2015,02,21,16,58,13.40
2015,02,21,16,59,13.30
2015,02,21,17,00,13.20
2015,02,21,17,01,13.00
2015,02,21,17,02,12.90
2015,02,21,17,03,12.70
2015,02,21,17,04,12.60
2015,02,21,17,05,12.50
2015,02,21,17,06,12.50
2015,02,21,17,07,12.40
2015,02,21,17,08,12.30
2015,02,21,17,09,12.20
2015,02,21,17,10,12.10
2015,02,21,17,11,12.00
2015,02,21,17,12,12.00
2015,02,21,17,13,11.90
2015,02,21,17,14,11.80
2015,02,21,17,15,11.80
2015,02,21,17,16,11.80
2015,02,21,17,17,11.80
2015,02,21,17,18,11.70
2015,02,21,17,19,11.70
2015,02,21,17,20,11.70
2015,02,21,17,21,11.70
2015,02,21,17,22,11.60
2015,02,21,17,23,11.60
2015,02,21,17,24,11.50
2015,02,21,17,25,11.40
2015,02,21,17,26,11.40
2015,02,21,17,27,11.30
2015,02,21,17,28,11.30
2015,02,21,17,29,11.30
2015,02,21,17,30,11.30
2015,02,21,17,31,11.30
2015,02,21,17,32,11.20
2015,02,21,17,33,11.20
2015,02,21,17,34,11.10
2015,02,21,17,35,11.10
2015,02,21,17,36,11.10
2015,02,21,17,37,11.00
2015,02,21,17,38,11.00
2015,02,21,17,39,10.90
2015,02,21,17,40,10.90
2015,02,21,17,41,10.80
2015,02,21,17,42,10.80
2015,02,21,17,43,10.70
2015,02,21,17,44,10.70
2015,02,21,17,45,10.70
2015,02,21,17,46,10.60
2015,02,21,17,47,10.60